GW2141 Weather Reports


time (UTC)temp
C
wind
direction
speed
KPH
gust
KPH
rain 1hr
cm
rain 24hr
cm
rain mn
cm
humidity
%
barometer
mb
20260507080118 13 43 0.0 3.2 0.00 0.41 0.30 88 1011.5
20260507075215 13 335 4.8 9.7 0.00 0.41 0.30 89 1011.6
20260507074215 13 314 1.6 6.4 0.00 0.41 0.30 88 1011.6
20260507071316 14 349 8.0 17.7 0.00 0.41 0.30 89 1011.0
20260507070333 14 360 8.0 9.7 0.03 0.41 0.30 89 1010.8
20260507065414 14 329 3.2 6.4 0.13 0.41 0.30 90 1010.2
20260507064416 14 1 4.8 9.7 0.20 0.41 0.30 90 1010.2
20260507063416 15 90 0.0 0.0 0.25 0.41 0.30 89 1010.1
20260507061416 15 275 0.0 1.6 0.30 0.41 0.30 88 1010.7
20260507060418 15 270 3.2 9.7 0.28 0.38 0.28 87 1010.2
20260507055415 16 26 3.2 6.4 0.18 0.28 0.18 86 1010.8
20260507054315 16 334 3.2 9.7 0.10 0.20 0.08 84 1010.9
20260507053316 17 354 3.2 4.8 0.05 0.15 0.03 81 1011.2
20260507052319 17 25 6.4 9.7 0.00 0.10 0.00 77 1010.6
20260507051415 18 178 1.6 4.8 0.00 0.10 0.00 77 1011.1
20260507050415 18 318 0.0 3.2 0.00 0.10 0.00 78 1011.1
20260507045416 18 225 0.0 3.2 0.00 0.10 0.00 80 1010.8
20260507044418 18 340 0.0 3.2 0.00 0.10 0.00 83 1010.8
20260507043415 18 129 0.0 4.8 0.00 0.10 0.00 84 1010.8
20260507042417 18 81 3.2 4.8 0.00 0.10 0.00 85 1010.5
20260507041515 18 180 0.0 1.6 0.00 0.10 0.00 83 1010.2
20260507040516 18 180 3.2 4.8 0.00 0.10 0.00 84 1010.1
20260507035548 18 180 4.8 6.4 0.00 0.10 0.10 84 1010.4
20260507034632 18 180 4.8 6.4 0.00 0.10 0.10 85 1010.4
20260507033631 18 180 3.2 4.8 0.00 0.10 0.10 86 1010.2
20260507031633 18 180 0.0 0.0 0.00 0.10 0.10 85 1010.0
20260507030632 18 180 0.0 1.6 0.00 0.10 0.10 84 1010.0
20260507025632 18 180 1.6 3.2 0.00 0.10 0.10 84 1009.8
20260507024731 18 180 3.2 4.8 0.00 0.10 0.10 85 1010.0
20260507023831 18 180 4.8 6.4 0.00 0.10 0.10 84 1010.1
20260507021833 17 180 3.2 4.8 0.00 0.10 0.10 88 1010.2
20260507015831 17 202 0.0 0.0 0.00 0.10 0.10 85 1010.4
20260507012930 17 202 0.0 0.0 0.00 0.10 0.10 85 1010.9
20260507011932 17 202 0.0 0.0 0.00 0.10 0.10 84 1010.6
20260507011031 18 202 0.0 0.0 0.00 0.10 0.10 82 1010.3
20260507010033 18 202 0.0 0.0 0.00 0.10 0.10 82 1010.5
20260507004030 18 202 0.0 1.6 0.00 0.10 0.10 79 1010.2
20260507003033 18 202 1.6 3.2 0.00 0.10 0.10 79 1010.1
20260507002131 19 202 1.6 4.8 0.00 0.10 0.10 79 1010.1
20260507001133 19 180 3.2 4.8 0.00 0.10 0.10 79 1010.1
20260506234149 19 180 4.8 6.4 0.00 0.10 0.10 77 1009.8
20260506233231 20 171 6.4 9.7 0.00 0.10 0.10 75 1009.8
20260506232230 20 158 4.8 8.0 0.00 0.10 0.10 75 1009.5
20260506225330 20 180 8.0 12.9 0.00 0.10 0.10 74 1009.7
20260506224332 20 196 11.3 16.1 0.00 0.10 0.10 75 1009.6
20260506223330 20 182 8.0 12.9 0.00 0.10 0.10 75 1009.6
20260506222331 20 169 11.3 16.1 0.00 0.10 0.10 75 1009.7
20260506221429 20 208 8.0 11.3 0.00 0.10 0.10 75 1009.7
20260506220448 20 219 8.0 9.7 0.00 0.10 0.10 74 1009.8
20260506215431 20 204 6.4 11.3 0.00 0.10 0.10 73 1010.0
20260506214448 20 180 9.7 14.5 0.00 0.10 0.10 74 1009.8
20260506213430 20 178 12.9 19.3 0.00 0.10 0.10 74 1009.5
20260506212432 20 177 9.7 16.1 0.00 0.10 0.10 73 1009.7
20260506211530 20 181 16.1 29.0 0.00 0.10 0.10 74 1009.5
20260506210530 20 166 14.5 19.3 0.00 0.10 0.10 74 1009.3
20260506205531 20 176 12.9 16.1 0.00 0.10 0.10 74 1009.3
20260506204532 20 173 12.9 19.3 0.00 0.10 0.10 73 1009.4
20260506204433 20 176 14.5 19.3 0.00 0.10 0.10 73 1009.3
20260506203531 20 196 14.5 17.7 0.00 0.10 0.10 73 1009.3
20260506202532 20 178 14.5 19.3 0.00 0.10 0.10 74 1009.3
20260506201530 20 185 12.9 17.7 0.00 0.10 0.10 74 1009.3
20260506200531 20 179 14.5 22.5 0.00 0.10 0.10 74 1009.4
20260506195529 20 202 14.5 24.1 0.00 0.10 0.10 73 1009.6
20260506194531 20 189 14.5 17.7 0.00 0.10 0.10 73 1009.8
20260506193630 19 181 14.5 19.3 0.00 0.10 0.10 74 1009.8
20260506192631 19 196 19.3 29.0 0.00 0.10 0.10 74 1009.8
20260506191630 20 186 16.1 20.9 0.00 0.10 0.10 73 1010.1
20260506190729 20 174 14.5 20.9 0.00 0.10 0.10 72 1009.9
20260506185733 19 183 19.3 27.4 0.00 0.10 0.10 73 1009.7
20260506184830 19 182 17.7 27.4 0.00 0.10 0.10 73 1010.1
20260506183831 19 173 16.1 20.9 0.00 0.10 0.10 73 1010.4
20260506182829 19 210 12.9 17.7 0.00 0.10 0.10 73 1010.8
20260506180831 18 181 17.7 24.1 0.00 0.10 0.10 74 1010.8
20260506175831 18 181 16.1 22.5 0.00 0.10 0.10 76 1010.9
20260506172832 18 186 17.7 24.1 0.00 0.10 0.10 78 1010.9
20260506171930 17 170 17.7 25.7 0.00 0.10 0.10 79 1010.8
20260506171029 17 179 16.1 24.1 0.00 0.10 0.10 79 1011.2
20260506165031 17 182 19.3 25.7 0.08 0.10 0.10 80 1011.3
20260506164129 17 177 17.7 30.6 0.08 0.10 0.10 81 1011.4
20260506163129 17 183 17.7 24.1 0.08 0.10 0.10 84 1011.4
20260506162131 16 182 14.5 19.3 0.08 0.10 0.10 84 1011.5
20260506161131 17 179 14.5 19.3 0.08 0.10 0.10 82 1011.6
20260506160229 17 178 12.9 19.3 0.05 0.05 0.05 81 1011.7
20260506155230 17 186 8.0 12.9 0.05 0.05 0.05 81 1012.1
20260506154245 17 185 11.3 12.9 0.03 0.03 0.03 80 1012.2
20260506153233 17 190 9.7 12.9 0.03 0.03 0.03 80 1012.6
20260506152231 17 176 6.4 12.9 0.03 0.03 0.03 79 1012.5
20260506151230 17 180 8.0 9.7 0.03 0.03 0.03 77 1012.6
20260506150230 18 180 11.3 17.7 0.00 0.00 0.00 76 1012.5
20260506145233 18 183 11.3 16.1 0.00 0.00 0.00 75 1012.6
20260506144330 18 225 9.7 14.5 0.00 0.00 0.00 74 1012.6
20260506143330 18 180 11.3 14.5 0.00 0.00 0.00 70 1012.6
20260506142329 19 173 16.1 24.1 0.00 0.00 0.00 68 1012.4
20260506141330 19 177 14.5 19.3 0.00 0.00 0.00 68 1012.6
20260506135331 19 178 16.1 19.3 0.00 0.00 0.00 67 1012.4
20260506134430 19 179 14.5 17.7 0.00 0.00 0.00 67 1012.2
20260506133432 19 173 17.7 24.1 0.00 0.00 0.00 65 1012.1
20260506130531 19 177 16.1 22.5 0.00 0.00 0.00 67 1012.2
20260506124532 18 179 19.3 30.6 0.00 0.00 0.00 66 1012.3
20260506123530 18 179 14.5 22.5 0.00 0.00 0.00 66 1012.5
20260506122530 18 180 20.9 29.0 0.00 0.00 0.00 66 1012.7
20260506121531 18 168 12.9 20.9 0.00 0.00 0.00 66 1012.8
20260506120629 18 173 19.3 25.7 0.00 0.00 0.00 67 1012.9
20260506115629 18 197 14.5 22.5 0.00 0.00 0.00 66 1012.7
20260506114629 18 176 14.5 19.3 0.00 0.00 0.00 66 1012.7
20260506113629 18 210 14.5 19.3 0.00 0.00 0.00 67 1012.6
20260506112629 18 187 12.9 17.7 0.00 0.00 0.00 68 1012.5
20260506111531 18 177 12.9 22.5 0.00 0.00 0.00 69 1012.5
20260506110531 18 170 14.5 17.7 0.00 0.00 0.00 69 1012.3
20260506105629 18 178 14.5 22.5 0.00 0.00 0.00 69 1012.3
20260506104631 18 183 12.9 19.3 0.00 0.00 0.00 68 1012.2
20260506103630 17 187 16.1 20.9 0.00 0.00 0.00 69 1012.3
20260506102630 17 189 16.1 24.1 0.00 0.00 0.00 71 1012.1
20260506101729 17 181 12.9 19.3 0.00 0.00 0.00 71 1012.1
20260506100731 17 181 12.9 22.5 0.00 0.00 0.00 71 1012.3
20260506095730 17 190 11.3 16.1 0.00 0.00 0.00 72 1012.3
20260506094745 17 183 14.5 17.7 0.00 0.00 0.00 72 1012.4
20260506093831 17 182 12.9 17.7 0.00 0.00 0.00 72 1012.3
20260506091829 18 179 16.1 24.1 0.00 0.00 0.00 72 1012.3
20260506085832 18 181 11.3 14.5 0.00 0.00 0.00 72 1012.3
20260506084829 18 181 14.5 19.3 0.00 0.00 0.00 71 1012.3
20260506083831 18 168 16.1 29.0 0.00 0.00 0.00 72 1012.3
20260506082830 18 180 12.9 19.3 0.00 0.00 0.00 72 1012.2
20260506081832 18 180 16.1 22.5 0.00 0.00 0.00 72 1012.4
20260506080829 18 175 14.5 20.9 0.00 0.00 0.00 71 1012.3